Weather History for Denver, CO

Change the Weather History Date:

Monday, April 8, 2013

  Actual Average Record
Temperature  
Mean Temperature 47 °F 46 °F  
Max Temperature 71 °F 60 °F 81 °F (1930)
Min Temperature 22 °F 31 °F 5 °F (1973)
Degree Days  
Heating Degree Days 18 19  
Month to date heating degree days 134 161  
Since 1 July heating degree days 5246 5363  
Cooling Degree Days 0 0  
Month to date cooling degree days 0 0  
Year to date cooling degree days 0 0  
Moisture  
Dew Point 25 °F    
Average Humidity 68    
Maximum Humidity 82    
Minimum Humidity 54    
Precipitation  
Precipitation T in 0.04 in 0.87 in (1959)
Month to date precipitation 0.07 0.30  
Year to date precipitation 2.62 2.00  
Snow  
Snow 0.50 in - - ()
Month to date snowfall 0.5  
Since 1 July snowfall 55.1  
Snow Depth 0.00 in    
Sea Level Pressure  
Sea Level Pressure 29.54 in    
Wind  
Wind Speed 18 mph (North)    
Max Wind Speed 44 mph    
Max Gust Speed 55 mph    
Visibility 6 miles    
Events Rain , Snow , Thunderstorm    
T = Trace of Precipitation, MM = Missing Value Source: NWS Daily Summary

Daily Weather History Graph

Daily Weather History Graph

Search for Another Location

Airport:

Trip Planner

Search our weather history database for the weather conditions in past years. The results will help you decide how hot, cold, wet, or windy it might be!

Date:

Astronomy

Apr. 08, 2013 Rise Set
Actual Time 6:31 AM MDT 7:30 PM MDT
Civil Twilight 6:03 AM MDT 7:57 PM MDT
Nautical Twilight 5:30 AM MDT 8:30 PM MDT
Astronomical Twilight 4:56 AM MDT 9:04 PM MDT
Moon 5:22 AM MDT (4/8) 6:07 PM MDT (4/8)
Length of Visible Light 13h 54m
Length of Day
12h 59m
Waning Crescent, 3% of the Moon is Illuminated
Apr 8
Waning Crescent
Apr 10
New
Apr 18
First Quarter
Apr 25
Full
May 2
Last Quarter

Hourly Weather History & Observations

Time (MDT) Temp. Windchill Dew Point Humidity Pressure Visibility Wind Dir Wind Speed Gust Speed Precip Events Conditions
12:53 AM 37.9 °F 33.5 °F 26.1 °F 62% 29.61 in 10.0 mi ESE 5.8 mph - N/A   Clear
1:53 AM 39.9 °F 34.5 °F 25.0 °F 55% 29.58 in 10.0 mi SE 8.1 mph - N/A   Clear
2:53 AM 36.0 °F 28.5 °F 24.1 °F 62% 29.57 in 10.0 mi SE 10.4 mph - N/A   Partly Cloudy
3:53 AM 39.0 °F 31.4 °F 24.1 °F 55% 29.55 in 10.0 mi SSE 12.7 mph - N/A   Scattered Clouds
4:53 AM 37.9 °F 33.5 °F 24.1 °F 57% 29.54 in 10.0 mi SSE 5.8 mph - N/A   Mostly Cloudy
5:53 AM 39.0 °F 32.3 °F 24.1 °F 55% 29.53 in 10.0 mi SSE 10.4 mph - N/A   Mostly Cloudy
6:53 AM 37.0 °F 33.3 °F 24.1 °F 59% 29.55 in 10.0 mi SSE 4.6 mph - N/A   Mostly Cloudy
7:53 AM 43.0 °F 41.3 °F 25.0 °F 49% 29.53 in 10.0 mi WSW 3.5 mph - N/A   Mostly Cloudy
8:53 AM 48.9 °F - 25.0 °F 39% 29.52 in 10.0 mi WNW 4.6 mph - N/A   Mostly Cloudy
9:53 AM 55.0 °F - 26.1 °F 33% 29.49 in 10.0 mi Calm Calm - N/A   Mostly Cloudy
10:53 AM 57.0 °F - 28.0 °F 33% 29.46 in 10.0 mi ENE 8.1 mph - N/A   Mostly Cloudy
11:53 AM 62.1 °F - 28.0 °F 28% 29.44 in 10.0 mi North 5.8 mph - N/A   Mostly Cloudy
12:53 PM 70.0 °F - 16.0 °F 13% 29.37 in 10.0 mi SSE 24.2 mph 38.0 mph N/A   Mostly Cloudy
12:55 PM 71.6 °F - 15.8 °F 12% 29.51 in 10.0 mi SSE 24.2 mph 38.0 mph N/A   Mostly Cloudy
1:53 PM 71.1 °F - 16.0 °F 12% 29.31 in 10.0 mi SSE 28.8 mph 35.7 mph N/A   Mostly Cloudy
2:53 PM 69.1 °F - 12.9 °F 11% 29.29 in 10.0 mi South 28.8 mph 42.6 mph N/A   Mostly Cloudy
3:53 PM 66.9 °F - 12.9 °F 12% 29.26 in 10.0 mi SSE 24.2 mph 41.4 mph N/A   Mostly Cloudy
4:53 PM 68.0 °F - 14.0 °F 12% 29.26 in 10.0 mi South 24.2 mph 28.8 mph N/A   Overcast
5:36 PM 60.8 °F - 24.8 °F 25% 29.42 in 6.0 mi WNW 17.3 mph 27.6 mph N/A   Haze
5:42 PM 57.2 °F - 28.4 °F 33% 29.42 in 2.0 mi NW 24.2 mph 31.1 mph N/A   Haze
5:53 PM 50.0 °F - 32.0 °F 50% 29.38 in 2.0 mi NNW 38.0 mph 49.5 mph N/A   Widespread Dust
5:56 PM 48.2 °F - 33.8 °F 58% 29.45 in 2.0 mi North 33.4 mph 48.3 mph N/A   Haze
6:17 PM 44.6 °F 33.2 °F 35.6 °F 71% 29.48 in 2.0 mi North 41.4 mph 51.8 mph 0.00 in Rain Light Rain
6:48 PM 42.8 °F 30.8 °F 33.8 °F 70% 29.52 in 2.0 mi North 40.3 mph 48.3 mph 0.00 in Rain , Thunderstorm Thunderstorms and Rain
6:49 PM 42.1 °F 29.8 °F 34.0 °F 73% 29.47 in 2.0 mi North 40.3 mph 48.3 mph 0.00 in Thunderstorm Widespread Dust
7:01 PM 41.0 °F 30.7 °F 33.8 °F 76% 29.53 in 2.0 mi North 25.3 mph 44.9 mph 0.00 in Rain , Thunderstorm Thunderstorms and Rain
7:11 PM 39.2 °F 26.3 °F 33.8 °F 81% 29.58 in 6.0 mi NNW 36.8 mph 44.9 mph 0.00 in Rain Light Rain
7:16 PM 39.2 °F 25.8 °F 33.8 °F 81% 29.59 in 6.0 mi NNW 40.3 mph 46.0 mph 0.00 in Rain , Thunderstorm Thunderstorms and Rain
7:33 PM 37.4 °F 25.2 °F 32.0 °F 81% 29.60 in 5.0 mi NNW 28.8 mph 38.0 mph 0.00 in Rain Light Rain
7:53 PM 35.1 °F 20.8 °F 30.0 °F 82% 29.55 in 6.0 mi North 35.7 mph 40.3 mph 0.00 in Snow Light Snow
8:53 PM 32.0 °F 18.1 °F 27.0 °F 82% 29.62 in 5.0 mi North 27.6 mph 33.4 mph 0.00 in Snow Light Snow
9:06 PM 30.2 °F 14.5 °F 26.6 °F 86% 29.68 in 4.0 mi NNW 33.4 mph 39.1 mph 0.00 in Snow Light Snow
9:53 PM 28.9 °F 14.8 °F 24.1 °F 82% 29.71 in 9.0 mi North 24.2 mph 40.3 mph 0.00 in   Overcast
9:58 PM 28.4 °F 15.8 °F 23.0 °F 80% 29.77 in 9.0 mi NNW 18.4 mph 27.6 mph N/A   Overcast
10:53 PM 27.0 °F 12.5 °F 21.0 °F 78% 29.74 in 1.8 mi North 23.0 mph 27.6 mph 0.00 in Snow Light Snow
11:09 PM 24.8 °F 9.3 °F 21.2 °F 86% 29.80 in 0.8 mi NNW 24.2 mph - 0.00 in Snow Light Snow
11:17 PM 24.8 °F 9.3 °F 19.4 °F 80% 29.80 in 0.5 mi NNW 24.2 mph - 0.00 in Snow Snow
11:28 PM 24.8 °F 9.3 °F 19.4 °F 80% 29.79 in 1.0 mi NNW 24.2 mph - 0.00 in Snow Light Snow
11:53 PM 24.1 °F 8.3 °F 19.9 °F 84% 29.76 in 1.0 mi NNW 24.2 mph - 0.00 in Snow Light Snow
11:55 PM 24.8 °F 9.3 °F 19.4 °F 80% 29.82 in 1.0 mi North 24.2 mph - 0.00 in Snow Light Snow